User: anonymous   Login
Location: Petruro
(41.0333°N, 14.7833°E)
Time: 08:00:04
(UTC+00:00)
Language:

Altair 2 - Orbit

View from above orbital plane
View from above orbital plane
View from above satellite
View from above satellite

Ground track
Ground track

The orbit data is extracted from the following two-line orbital elements,

1 01815U 65101B   22028.85467363  .00000504  00000-0  69749-4 0  9992
2 01815  75.8465 293.0356 0005785 218.8904 141.1866 14.79593160830695
Epoch (UTC): 28 January 2022 20:30:43
Eccentricity: 0.0005785
inclination: 75.8465°
perigee height: 626 km
apogee height: 634 km
right ascension of ascending node: 293.0356°
argument of perigee: 218.8904°
revolutions per day: 14.79593160
mean anomaly at epoch: 141.1866°
orbit number at epoch: 83069

The dashed part of the orbit path shows where the satellite is in the earth's shadow,  

DLR